Temp
50 50 48 47 46 46 45 44 45 44 45 45 44 42 42 41 40 41 40 40 40 40
50 48 48 47 45 45 44 46 44 44 43 43 42 42 41 40 40 40 40 39 39 39
50 49 48 46 45 45 44 47 45 46 45 44 41 41 40 39 40 40 39 39 39 39
49 48 46 46 45 44 47 48 47 46 45 44 43 40 39 39 39 39 39 39 39 38
48 47 45 44 44 45 45 47 47 46 44 44 43 42 39 39 39 38 37 37 37 38
46 44 43 43 43 44 44 44 45 45 44 43 42 41 38 37 35 33 32 32 34 34
42 42 41 41 42 43 43 42 42 43 42 41 41 39 37 35 33 32 30 31 31 32
41 41 39 39 39 39 42 42 42 40 40 39 38 38 35 34 32 30 28 30 31 31
40 38 37 36 35 35 35 38 37 37 37 35 36 35 35 33 31 30 29 28 30 32
37 35 35 37 36 35 34 35 33 33 33 32 33 35 35 33 30 29 28 28 29 29
34 35 35 34 33 33 33 32 31 31 31 32 33 35 34 31 29 28 27 27 28 26
33 33 33 32 32 32 31 31 30 30 31 31 32 35 33 29 27 26 26 27 28 26
33 33 32 32 32 32 30 27 29 29 30 32 31 33 32 28 26 24 24 26 27 28
33 33 33 32 31 28 28 28 28 27 28 29 29 30 31 29 26 24 23 23 24 26
MSLP
1016.52 1016.92 1017.27 1017.35 1017.60 1017.99 1018.31 1018.38 1018.72 1019.24 1019.38 1019.62 1019.81 1020.02 1019.98 1020.30 1020.64 1020.92 1021.21 1021.38 1021.48 1021.67
1016.26 1016.48 1016.69 1016.91 1017.28 1017.53 1017.83 1018.01 1018.46 1018.78 1019.14 1019.39 1019.77 1020.11 1020.57 1020.60 1020.71 1020.91 1021.36 1021.78 1022.03 1022.06
1015.83 1015.96 1016.21 1016.71 1017.06 1017.27 1017.40 1017.86 1018.49 1018.83 1018.99 1019.24 1019.54 1020.01 1020.54 1020.92 1020.86 1021.02 1021.34 1021.76 1022.18 1022.55
1015.43 1015.61 1016.12 1016.37 1016.60 1016.88 1017.47 1017.86 1018.28 1018.60 1019.00 1019.21 1019.65 1019.84 1020.38 1020.98 1021.02 1021.20 1021.54 1021.89 1022.20 1022.89
1015.35 1015.59 1015.97 1016.19 1016.41 1016.73 1016.80 1017.26 1017.45 1018.18 1018.67 1019.03 1019.58 1019.86 1020.39 1021.09 1021.26 1021.52 1021.89 1022.31 1022.41 1022.90
1015.41 1015.77 1016.01 1016.14 1016.41 1016.80 1017.08 1017.39 1017.76 1017.99 1018.40 1019.09 1019.72 1020.06 1020.76 1021.45 1021.92 1022.29 1022.61 1022.95 1023.30 1023.40
1015.74 1015.85 1016.04 1016.24 1016.39 1016.54 1016.93 1017.42 1017.91 1018.34 1018.72 1019.17 1019.74 1020.32 1020.83 1021.61 1022.09 1022.53 1023.22 1023.76 1024.04 1024.09
1015.80 1015.96 1016.33 1016.72 1016.93 1017.03 1017.16 1017.44 1017.82 1018.46 1018.95 1019.37 1019.96 1020.60 1021.41 1022.07 1022.61 1022.81 1023.13 1023.92 1024.52 1024.45
1016.03 1016.24 1016.52 1017.01 1017.39 1017.60 1017.84 1017.96 1018.12 1018.79 1019.32 1019.79 1020.56 1021.22 1021.84 1022.36 1023.04 1023.58 1023.85 1024.03 1024.74 1024.59
1016.59 1016.86 1017.22 1017.59 1017.86 1018.28 1018.52 1018.91 1019.20 1019.51 1019.89 1020.47 1020.99 1021.65 1022.14 1022.73 1023.43 1023.95 1024.34 1025.02 1025.28 1025.34
1017.17 1017.15 1017.60 1018.07 1018.52 1018.72 1019.05 1019.48 1019.95 1020.22 1020.72 1021.00 1021.37 1021.79 1022.44 1023.01 1023.66 1024.30 1024.79 1025.50 1026.06 1026.04
1017.35 1017.49 1017.86 1018.36 1018.83 1019.38 1019.50 1019.97 1020.46 1020.72 1021.06 1021.50 1021.84 1021.99 1022.62 1023.06 1023.95 1024.53 1025.31 1025.60 1026.10 1026.36
1017.56 1017.82 1018.21 1018.38 1018.82 1019.61 1020.08 1020.48 1020.78 1021.21 1021.48 1021.73 1021.97 1022.23 1022.73 1023.25 1024.08 1024.96 1025.41 1025.61 1026.33 1026.50
1017.98 1018.23 1018.37 1018.59 1019.14 1020.06 1020.53 1021.00 1021.41 1021.78 1022.09 1022.31 1022.51 1022.78 1023.06 1023.51 1024.35 1025.13 1025.55 1025.80 1026.56 1026.89
Wind_Speed
7 6 5 6 5 5 5 4 6 5 5 5 5 3 4 3 3 4 4 5 4 3
6 8 8 7 5 4 4 4 6 7 7 6 6 5 5 3 5 5 4 5 4 4
7 7 6 5 7 6 5 7 7 7 6 7 7 6 6 4 4 6 4 4 5 4
7 6 6 7 7 7 7 8 8 8 7 7 7 7 6 5 6 6 6 5 6 5
5 4 5 6 7 8 10 10 11 10 8 8 7 6 6 6 5 6 6 5 6 5
3 3 5 5 5 5 6 7 6 8 9 8 6 7 6 7 7 7 7 6 5 4
3 4 4 4 5 6 6 7 6 7 7 8 8 8 9 9 9 9 7 6 5 3
3 3 2 2 3 4 5 6 8 9 8 8 8 6 8 8 8 9 9 7 5 4
3 2 3 4 4 5 5 6 9 9 9 8 5 14 14 11 7 7 8 8 6 7
2 4 4 4 5 5 5 5 6 7 8 7 8 17 16 14 6 7 7 7 6 7
3 5 5 5 5 6 6 7 6 7 7 7 6 16 17 16 9 8 7 6 4 7
4 6 6 6 6 5 7 6 4 5 7 6 5 14 19 14 9 8 8 6 5 6
4 5 6 7 8 4 4 5 6 6 5 9 7 17 18 14 7 7 6 6 4 10
4 4 6 6 6 6 7 7 6 6 5 6 8 9 15 16 7 6 6 5 4 3
Wind_Direction
190 195 202 185 175 193 195 175 165 170 164 150 140 125 124 110 99 90 84 89 90 91
195 187 198 194 182 187 173 169 176 170 161 155 144 136 128 121 120 110 101 92 84 86
203 198 196 167 196 190 171 172 172 175 163 152 147 143 139 135 136 125 122 119 108 88
219 204 189 192 190 182 174 181 177 173 163 159 159 154 145 151 140 128 122 124 120 114
238 202 195 196 194 182 185 182 175 172 169 166 164 149 143 148 129 118 107 105 115 130
260 205 220 209 186 184 183 182 174 164 158 153 142 128 109 105 95 79 72 56 64 85
272 258 245 218 198 176 166 149 141 145 137 135 131 126 120 121 115 107 86 82 67 75
251 226 182 178 157 136 145 147 139 130 122 123 120 123 124 122 119 119 110 93 95 98
251 204 161 134 135 125 113 126 125 132 129 116 120 137 135 125 116 108 112 112 105 85
161 160 136 120 113 106 105 100 105 110 113 115 127 137 133 120 110 111 107 122 121 115
155 109 106 103 106 105 104 109 112 99 103 116 126 141 133 120 111 110 103 119 151 122
122 122 121 120 117 119 114 115 114 121 119 123 142 156 138 120 117 116 119 121 125 122
128 134 142 134 128 113 105 111 115 107 111 139 140 147 146 129 123 121 118 107 143 145
117 130 132 114 111 117 113 109 106 99 80 109 125 145 146 134 125 138 134 121 126 154